QPF
0.00 0.01 0.02 0.01 0.01 0.00 0.00 0.00 0.00 0.00 0.00 0.00 0.00 0.00 0.00 0.00 0.00 0.00 0.00 0.00 0.00 0.00 0.00 0.00 0.00 0.00 0.00 0.00 0.00 0.00 0.00 0.00 0.00 0.00 0.00 0.00 0.00 0.00 0.00 0.00 0.00 0.00 0.00 0.00
0.00 0.01 0.02 0.02 0.01 0.01 0.00 0.00 0.00 0.00 0.00 0.00 0.00 0.00 0.00 0.00 0.00 0.00 0.00 0.00 0.00 0.00 0.00 0.00 0.00 0.00 0.00 0.00 0.00 0.00 0.00 0.00 0.00 0.00 0.00 0.00 0.00 0.00 0.00 0.00 0.00 0.00 0.00 0.00
0.00 0.00 0.01 0.03 0.03 0.01 0.00 0.00 0.00 0.00 0.00 0.00 0.00 0.00 0.00 0.00 0.00 0.00 0.00 0.00 0.00 0.00 0.00 0.00 0.00 0.00 0.00 0.00 0.00 0.00 0.00 0.00 0.00 0.00 0.00 0.00 0.00 0.00 0.00 0.00 0.00 0.00 0.00 0.00
0.00 0.00 0.02 0.02 0.02 0.01 0.01 0.00 0.00 0.00 0.00 0.00 0.00 0.00 0.00 0.00 0.00 0.00 0.00 0.00 0.00 0.00 0.00 0.00 0.00 0.00 0.00 0.00 0.00 0.00 0.00 0.00 0.00 0.00 0.00 0.00 0.00 0.00 0.00 0.00 0.00 0.00 0.00 0.01
0.00 0.00 0.01 0.01 0.02 0.01 0.01 0.00 0.00 0.00 0.00 0.00 0.00 0.00 0.00 0.00 0.00 0.00 0.00 0.00 0.00 0.00 0.00 0.00 0.00 0.00 0.00 0.00 0.00 0.00 0.00 0.00 0.00 0.00 0.00 0.00 0.00 0.00 0.00 0.01 0.01 0.01 0.01 0.01
0.00 0.02 0.03 0.01 0.01 0.01 0.00 0.00 0.00 0.00 0.00 0.00 0.00 0.00 0.00 0.00 0.00 0.00 0.00 0.00 0.00 0.00 0.00 0.00 0.00 0.00 0.00 0.00 0.00 0.00 0.00 0.00 0.00 0.00 0.00 0.00 0.01 0.01 0.01 0.01 0.01 0.01 0.01 0.01
0.00 0.01 0.02 0.03 0.01 0.00 0.00 0.00 0.00 0.00 0.00 0.00 0.00 0.00 0.00 0.00 0.00 0.00 0.00 0.00 0.00 0.00 0.00 0.00 0.00 0.00 0.00 0.00 0.00 0.00 0.00 0.00 0.00 0.00 0.00 0.01 0.01 0.01 0.01 0.01 0.01 0.02 0.02 0.03
0.00 0.02 0.01 0.01 0.00 0.00 0.00 0.00 0.00 0.00 0.00 0.00 0.00 0.00 0.00 0.00 0.00 0.00 0.00 0.00 0.00 0.00 0.00 0.00 0.00 0.00 0.00 0.00 0.00 0.00 0.00 0.00 0.00 0.00 0.00 0.01 0.01 0.01 0.01 0.02 0.02 0.02 0.03 0.03
0.00 0.00 0.00 0.00 0.00 0.00 0.00 0.00 0.00 0.00 0.00 0.00 0.00 0.00 0.00 0.00 0.00 0.00 0.00 0.00 0.00 0.00 0.00 0.00 0.00 0.00 0.00 0.00 0.00 0.00 0.00 0.00 0.00 0.00 0.01 0.01 0.01 0.01 0.01 0.02 0.02 0.02 0.03 0.03
0.00 0.00 0.00 0.00 0.00 0.00 0.00 0.00 0.00 0.00 0.00 0.00 0.00 0.00 0.00 0.00 0.00 0.00 0.00 0.00 0.00 0.00 0.00 0.00 0.00 0.00 0.00 0.00 0.00 0.00 0.00 0.00 0.00 0.00 0.01 0.01 0.01 0.01 0.01 0.02 0.02 0.02 0.02 0.02
0.00 0.00 0.00 0.00 0.00 0.00 0.00 0.00 0.00 0.00 0.00 0.00 0.00 0.00 0.00 0.00 0.00 0.00 0.00 0.00 0.00 0.00 0.00 0.00 0.00 0.00 0.00 0.00 0.00 0.00 0.00 0.00 0.00 0.00 0.01 0.01 0.01 0.02 0.02 0.01 0.01 0.01 0.01 0.02
0.00 0.00 0.00 0.00 0.00 0.00 0.00 0.00 0.00 0.00 0.00 0.00 0.00 0.00 0.00 0.00 0.00 0.00 0.00 0.00 0.00 0.00 0.00 0.00 0.00 0.00 0.00 0.00 0.00 0.00 0.00 0.00 0.00 0.01 0.01 0.01 0.01 0.01 0.01 0.01 0.00 0.01 0.01 0.01
0.00 0.00 0.00 0.00 0.00 0.00 0.00 0.00 0.00 0.00 0.00 0.00 0.00 0.00 0.00 0.00 0.00 0.00 0.00 0.00 0.00 0.00 0.00 0.00 0.00 0.00 0.00 0.00 0.00 0.00 0.00 0.00 0.00 0.01 0.01 0.01 0.01 0.01 0.01 0.01 0.01 0.01 0.01 0.01
0.01 0.01 0.00 0.00 0.00 0.00 0.00 0.00 0.00 0.00 0.00 0.00 0.00 0.00 0.00 0.00 0.00 0.00 0.00 0.00 0.00 0.00 0.00 0.00 0.00 0.00 0.00 0.00 0.00 0.00 0.00 0.00 0.01 0.01 0.01 0.01 0.01 0.01 0.01 0.01 0.02 0.02 0.01 0.01
0.01 0.01 0.00 0.00 0.00 0.00 0.00 0.00 0.00 0.00 0.00 0.00 0.00 0.00 0.00 0.00 0.00 0.00 0.00 0.00 0.00 0.00 0.00 0.00 0.00 0.00 0.00 0.00 0.00 0.00 0.00 0.00 0.00 0.01 0.01 0.01 0.01 0.01 0.01 0.01 0.01 0.01 0.01 0.01
0.01 0.01 0.00 0.00 0.00 0.00 0.00 0.00 0.00 0.00 0.00 0.00 0.00 0.00 0.00 0.00 0.00 0.00 0.00 0.00 0.00 0.00 0.00 0.00 0.00 0.00 0.00 0.00 0.00 0.00 0.00 0.00 0.00 0.01 0.01 0.01 0.01 0.01 0.01 0.01 0.02 0.02 0.01 0.01
0.01 0.01 0.01 0.00 0.00 0.00 0.00 0.00 0.00 0.00 0.01 0.00 0.00 0.00 0.00 0.00 0.00 0.00 0.00 0.00 0.00 0.00 0.00 0.00 0.00 0.00 0.00 0.00 0.00 0.00 0.00 0.00 0.00 0.01 0.01 0.01 0.01 0.01 0.01 0.02 0.02 0.02 0.01 0.01
0.01 0.01 0.01 0.00 0.00 0.00 0.00 0.00 0.01 0.01 0.01 0.01 0.01 0.01 0.00 0.00 0.00 0.00 0.00 0.00 0.00 0.00 0.00 0.00 0.00 0.00 0.00 0.00 0.00 0.00 0.00 0.00 0.00 0.01 0.00 0.01 0.01 0.01 0.01 0.01 0.02 0.02 0.02 0.01
0.02 0.02 0.01 0.01 0.01 0.00 0.00 0.01 0.01 0.01 0.01 0.01 0.01 0.01 0.01 0.00 0.00 0.00 0.00 0.00 0.00 0.00 0.00 0.00 0.00 0.00 0.00 0.00 0.00 0.00 0.00 0.00 0.00 0.00 0.01 0.01 0.01 0.01 0.01 0.01 0.01 0.02 0.02 0.02
0.02 0.02 0.01 0.01 0.01 0.01 0.01 0.01 0.01 0.01 0.01 0.01 0.01 0.01 0.00 0.00 0.00 0.00 0.00 0.00 0.00 0.00 0.00 0.00 0.00 0.00 0.00 0.00 0.00 0.00 0.00 0.00 0.00 0.01 0.01 0.01 0.01 0.01 0.01 0.01 0.01 0.01 0.02 0.03
0.02 0.02 0.01 0.01 0.01 0.01 0.01 0.01 0.01 0.01 0.01 0.01 0.01 0.01 0.00 0.00 0.00 0.00 0.00 0.00 0.00 0.00 0.00 0.00 0.00 0.00 0.00 0.00 0.00 0.00 0.00 0.00 0.01 0.01 0.01 0.01 0.02 0.02 0.02 0.02 0.01 0.01 0.02 0.03
0.01 0.01 0.01 0.01 0.00 0.00 0.01 0.01 0.00 0.00 0.00 0.00 0.00 0.01 0.01 0.00 0.00 0.00 0.00 0.00 0.00 0.00 0.00 0.00 0.00 0.00 0.00 0.00 0.00 0.00 0.00 0.00 0.00 0.01 0.01 0.01 0.02 0.02 0.02 0.02 0.02 0.01 0.02 0.03
0.00 0.00 0.00 0.00 0.00 0.00 0.00 0.00 0.00 0.00 0.00 0.01 0.01 0.01 0.01 0.01 0.01 0.00 0.00 0.00 0.01 0.01 0.01 0.00 0.00 0.00 0.00 0.00 0.00 0.00 0.00 0.00 0.00 0.00 0.01 0.02 0.02 0.03 0.03 0.02 0.02 0.02 0.02 0.02
0.00 0.00 0.00 0.00 0.00 0.00 0.00 0.00 0.00 0.00 0.00 0.00 0.00 0.00 0.01 0.01 0.01 0.01 0.01 0.02 0.02 0.02 0.01 0.01 0.01 0.01 0.00 0.00 0.00 0.00 0.00 0.00 0.00 0.00 0.00 0.02 0.02 0.02 0.02 0.03 0.02 0.03 0.03 0.03
0.00 0.00 0.00 0.00 0.00 0.00 0.00 0.00 0.00 0.00 0.00 0.00 0.00 0.00 0.01 0.02 0.02 0.03 0.03 0.03 0.03 0.03 0.02 0.01 0.01 0.01 0.00 0.00 0.00 0.00 0.00 0.00 0.00 0.00 0.00 0.01 0.02 0.02 0.02 0.03 0.03 0.03 0.04 0.03
0.00 0.00 0.00 0.00 0.00 0.00 0.00 0.00 0.00 0.00 0.00 0.00 0.00 0.01 0.02 0.03 0.06 0.08 0.08 0.08 0.07 0.06 0.05 0.04 0.03 0.01 0.00 0.00 0.00 0.00 0.00 0.00 0.00 0.00 0.00 0.01 0.02 0.03 0.03 0.03 0.03 0.03 0.03 0.02
0.00 0.00 0.00 0.00 0.00 0.00 0.00 0.00 0.00 0.00 0.00 0.01 0.01 0.02 0.04 0.07 0.09 0.11 0.11 0.10 0.09 0.08 0.07 0.05 0.03 0.01 0.01 0.00 0.00 0.00 0.00 0.00 0.00 0.00 0.00 0.01 0.02 0.03 0.03 0.03 0.03 0.02 0.02 0.02
MSLP
1012.41 1012.54 1012.75 1013.04 1013.38 1013.74 1014.06 1014.31 1014.46 1014.50 1014.44 1014.31 1014.15 1013.98 1013.85 1013.77 1013.73 1013.71 1013.70 1013.66 1013.57 1013.42 1013.21 1012.96 1012.69 1012.43 1012.19 1011.99 1011.82 1011.69 1011.56 1011.42 1011.25 1011.05 1010.81 1010.54 1010.27 1009.99 1009.72 1009.47 1009.25 1009.04 1008.84 1008.65
1012.51 1012.65 1012.80 1012.94 1013.08 1013.21 1013.32 1013.40 1013.43 1013.44 1013.43 1013.41 1013.41 1013.43 1013.47 1013.52 1013.56 1013.58 1013.54 1013.44 1013.26 1013.03 1012.75 1012.45 1012.17 1011.93 1011.73 1011.58 1011.46 1011.36 1011.24 1011.10 1010.91 1010.66 1010.37 1010.05 1009.71 1009.39 1009.09 1008.82 1008.59 1008.38 1008.19 1008.00
1012.71 1012.84 1012.90 1012.92 1012.90 1012.84 1012.77 1012.71 1012.65 1012.63 1012.65 1012.72 1012.84 1012.99 1013.16 1013.30 1013.40 1013.42 1013.36 1013.19 1012.95 1012.65 1012.32 1012.00 1011.72 1011.49 1011.33 1011.22 1011.14 1011.06 1010.95 1010.79 1010.56 1010.26 1009.91 1009.53 1009.14 1008.77 1008.44 1008.15 1007.91 1007.70 1007.51 1007.34
1012.99 1013.07 1013.05 1012.95 1012.79 1012.59 1012.39 1012.22 1012.10 1012.05 1012.10 1012.22 1012.42 1012.65 1012.89 1013.08 1013.20 1013.21 1013.12 1012.91 1012.61 1012.27 1011.91 1011.58 1011.31 1011.12 1010.99 1010.92 1010.87 1010.80 1010.68 1010.49 1010.22 1009.87 1009.45 1009.00 1008.56 1008.14 1007.78 1007.47 1007.22 1007.01 1006.84 1006.67
1013.26 1013.25 1013.13 1012.92 1012.64 1012.34 1012.05 1011.81 1011.65 1011.60 1011.65 1011.81 1012.05 1012.32 1012.59 1012.80 1012.92 1012.91 1012.79 1012.55 1012.23 1011.87 1011.51 1011.20 1010.96 1010.80 1010.72 1010.67 1010.64 1010.57 1010.43 1010.21 1009.88 1009.47 1008.99 1008.49 1007.99 1007.53 1007.13 1006.80 1006.54 1006.34 1006.16 1006.00
1013.35 1013.22 1012.98 1012.68 1012.32 1011.95 1011.61 1011.34 1011.17 1011.11 1011.19 1011.37 1011.63 1011.92 1012.19 1012.40 1012.51 1012.49 1012.35 1012.11 1011.79 1011.45 1011.12 1010.85 1010.65 1010.54 1010.48 1010.46 1010.44 1010.36 1010.20 1009.93 1009.55 1009.08 1008.55 1007.99 1007.44 1006.94 1006.51 1006.16 1005.89 1005.68 1005.50 1005.33
1013.11 1012.83 1012.49 1012.09 1011.67 1011.27 1010.92 1010.66 1010.51 1010.48 1010.58 1010.79 1011.06 1011.37 1011.65 1011.86 1011.96 1011.95 1011.83 1011.60 1011.32 1011.02 1010.75 1010.53 1010.39 1010.31 1010.29 1010.29 1010.26 1010.16 1009.97 1009.65 1009.23 1008.71 1008.12 1007.51 1006.92 1006.39 1005.93 1005.56 1005.27 1005.05 1004.86 1004.69
1012.44 1012.02 1011.57 1011.10 1010.65 1010.25 1009.92 1009.70 1009.60 1009.62 1009.77 1010.02 1010.33 1010.66 1010.95 1011.18 1011.31 1011.33 1011.24 1011.07 1010.85 1010.62 1010.41 1010.26 1010.17 1010.13 1010.13 1010.13 1010.09 1009.96 1009.73 1009.37 1008.90 1008.33 1007.70 1007.05 1006.43 1005.86 1005.39 1005.00 1004.70 1004.46 1004.27 1004.09
1011.35 1010.80 1010.26 1009.74 1009.28 1008.91 1008.63 1008.48 1008.45 1008.56 1008.78 1009.08 1009.44 1009.81 1010.15 1010.42 1010.60 1010.67 1010.66 1010.56 1010.42 1010.27 1010.14 1010.05 1010.00 1010.00 1010.00 1009.99 1009.91 1009.75 1009.47 1009.07 1008.55 1007.94 1007.28 1006.61 1005.96 1005.38 1004.89 1004.49 1004.18 1003.94 1003.74 1003.56
1009.96 1009.31 1008.70 1008.16 1007.72 1007.39 1007.18 1007.11 1007.18 1007.37 1007.67 1008.05 1008.48 1008.91 1009.31 1009.64 1009.89 1010.04 1010.11 1010.11 1010.06 1009.99 1009.93 1009.90 1009.88 1009.89 1009.88 1009.83 1009.72 1009.50 1009.18 1008.73 1008.18 1007.54 1006.86 1006.18 1005.53 1004.94 1004.45 1004.05 1003.74 1003.50 1003.31 1003.14
1008.48 1007.77 1007.13 1006.59 1006.17 1005.89 1005.76 1005.77 1005.93 1006.21 1006.59 1007.04 1007.54 1008.04 1008.50 1008.90 1009.23 1009.47 1009.63 1009.72 1009.76 1009.77 1009.78 1009.78 1009.78 1009.78 1009.74 1009.65 1009.48 1009.22 1008.84 1008.36 1007.78 1007.13 1006.45 1005.77 1005.13 1004.56 1004.07 1003.68 1003.38 1003.16 1002.98 1002.84
1007.18 1006.44 1005.79 1005.26 1004.87 1004.64 1004.57 1004.65 1004.87 1005.22 1005.66 1006.17 1006.72 1007.27 1007.79 1008.25 1008.65 1008.97 1009.21 1009.38 1009.50 1009.58 1009.62 1009.65 1009.65 1009.62 1009.55 1009.41 1009.19 1008.87 1008.46 1007.95 1007.36 1006.72 1006.05 1005.40 1004.78 1004.24 1003.78 1003.41 1003.13 1002.93 1002.77 1002.65
1006.27 1005.53 1004.89 1004.38 1004.02 1003.82 1003.79 1003.91 1004.16 1004.53 1004.99 1005.52 1006.08 1006.65 1007.20 1007.70 1008.14 1008.51 1008.81 1009.04 1009.21 1009.34 1009.41 1009.45 1009.45 1009.39 1009.28 1009.10 1008.84 1008.48 1008.05 1007.53 1006.94 1006.32 1005.69 1005.07 1004.50 1004.00 1003.57 1003.23 1002.98 1002.79 1002.66 1002.56
1005.86 1005.14 1004.53 1004.04 1003.70 1003.52 1003.49 1003.60 1003.84 1004.19 1004.63 1005.12 1005.65 1006.19 1006.72 1007.21 1007.66 1008.05 1008.38 1008.64 1008.85 1009.00 1009.10 1009.14 1009.13 1009.06 1008.93 1008.72 1008.43 1008.06 1007.62 1007.11 1006.55 1005.97 1005.38 1004.81 1004.29 1003.83 1003.44 1003.13 1002.89 1002.72 1002.60 1002.51
1005.97 1005.29 1004.71 1004.24 1003.91 1003.72 1003.67 1003.74 1003.93 1004.21 1004.56 1004.97 1005.42 1005.88 1006.34 1006.78 1007.19 1007.55 1007.88 1008.15 1008.37 1008.54 1008.65 1008.71 1008.70 1008.63 1008.49 1008.27 1007.99 1007.63 1007.20 1006.72 1006.21 1005.67 1005.14 1004.62 1004.15 1003.73 1003.37 1003.08 1002.85 1002.68 1002.55 1002.46
1006.50 1005.88 1005.33 1004.89 1004.55 1004.34 1004.24 1004.24 1004.33 1004.50 1004.74 1005.02 1005.34 1005.68 1006.03 1006.37 1006.70 1007.02 1007.31 1007.56 1007.78 1007.96 1008.09 1008.16 1008.17 1008.12 1008.00 1007.81 1007.55 1007.22 1006.83 1006.39 1005.92 1005.44 1004.96 1004.49 1004.06 1003.67 1003.33 1003.05 1002.81 1002.62 1002.47 1002.34
1007.31 1006.74 1006.23 1005.80 1005.46 1005.21 1005.05 1004.97 1004.95 1005.00 1005.09 1005.22 1005.37 1005.56 1005.76 1005.98 1006.21 1006.45 1006.68 1006.90 1007.11 1007.30 1007.45 1007.55 1007.60 1007.59 1007.51 1007.36 1007.14 1006.86 1006.52 1006.13 1005.71 1005.27 1004.83 1004.40 1004.00 1003.62 1003.29 1002.99 1002.73 1002.51 1002.32 1002.15
1008.21 1007.70 1007.23 1006.82 1006.47 1006.19 1005.97 1005.80 1005.67 1005.58 1005.52 1005.48 1005.47 1005.49 1005.54 1005.62 1005.73 1005.87 1006.04 1006.23 1006.42 1006.62 1006.79 1006.94 1007.04 1007.08 1007.06 1006.97 1006.80 1006.57 1006.27 1005.93 1005.55 1005.14 1004.73 1004.32 1003.93 1003.55 1003.21 1002.89 1002.60 1002.34 1002.10 1001.88
1009.06 1008.59 1008.16 1007.77 1007.42 1007.12 1006.85 1006.60 1006.37 1006.16 1005.95 1005.76 1005.59 1005.45 1005.35 1005.29 1005.28 1005.33 1005.43 1005.58 1005.77 1005.97 1006.18 1006.37 1006.53 1006.64 1006.68 1006.64 1006.53 1006.35 1006.09 1005.78 1005.42 1005.03 1004.63 1004.22 1003.82 1003.44 1003.08 1002.73 1002.41 1002.11 1001.83 1001.57
1009.75 1009.32 1008.93 1008.56 1008.22 1007.90 1007.59 1007.29 1006.98 1006.66 1006.33 1006.01 1005.70 1005.42 1005.18 1004.99 1004.88 1004.84 1004.88 1005.00 1005.18 1005.40 1005.64 1005.89 1006.10 1006.27 1006.37 1006.39 1006.32 1006.17 1005.95 1005.65 1005.30 1004.92 1004.51 1004.09 1003.68 1003.28 1002.90 1002.54 1002.20 1001.87 1001.56 1001.27
1010.24 1009.86 1009.49 1009.14 1008.81 1008.49 1008.15 1007.81 1007.43 1007.03 1006.61 1006.18 1005.75 1005.35 1005.00 1004.71 1004.51 1004.40 1004.39 1004.49 1004.66 1004.90 1005.18 1005.47 1005.73 1005.96 1006.11 1006.18 1006.15 1006.03 1005.82 1005.53 1005.17 1004.78 1004.36 1003.93 1003.51 1003.10 1002.71 1002.34 1002.00 1001.67 1001.36 1001.05
1010.55 1010.19 1009.85 1009.52 1009.20 1008.87 1008.52 1008.14 1007.72 1007.26 1006.76 1006.25 1005.73 1005.23 1004.78 1004.41 1004.14 1003.98 1003.93 1004.01 1004.19 1004.45 1004.76 1005.09 1005.40 1005.68 1005.88 1005.98 1005.99 1005.89 1005.68 1005.39 1005.04 1004.63 1004.20 1003.77 1003.34 1002.93 1002.55 1002.20 1001.87 1001.56 1001.27 1000.99
1010.70 1010.36 1010.03 1009.72 1009.41 1009.07 1008.71 1008.30 1007.84 1007.33 1006.78 1006.19 1005.60 1005.03 1004.51 1004.08 1003.75 1003.55 1003.48 1003.54 1003.73 1004.00 1004.35 1004.72 1005.08 1005.40 1005.64 1005.78 1005.82 1005.73 1005.55 1005.27 1004.91 1004.51 1004.08 1003.65 1003.24 1002.85 1002.49 1002.17 1001.87 1001.60 1001.35 1001.10
1010.71 1010.39 1010.07 1009.77 1009.46 1009.12 1008.74 1008.31 1007.82 1007.27 1006.66 1006.02 1005.38 1004.75 1004.18 1003.70 1003.33 1003.10 1003.01 1003.07 1003.26 1003.56 1003.93 1004.34 1004.74 1005.11 1005.39 1005.57 1005.64 1005.59 1005.43 1005.17 1004.83 1004.45 1004.04 1003.63 1003.24 1002.89 1002.57 1002.29 1002.05 1001.82 1001.62 1001.41
1010.60 1010.29 1009.99 1009.70 1009.39 1009.04 1008.65 1008.20 1007.68 1007.10 1006.45 1005.77 1005.08 1004.42 1003.81 1003.29 1002.90 1002.65 1002.55 1002.61 1002.81 1003.13 1003.53 1003.97 1004.41 1004.82 1005.15 1005.38 1005.49 1005.48 1005.36 1005.14 1004.84 1004.49 1004.12 1003.75 1003.41 1003.10 1002.83 1002.60 1002.40 1002.22 1002.06 1001.90
1010.36 1010.08 1009.80 1009.51 1009.21 1008.86 1008.47 1008.00 1007.47 1006.86 1006.19 1005.49 1004.77 1004.08 1003.46 1002.92 1002.51 1002.25 1002.16 1002.22 1002.43 1002.77 1003.19 1003.66 1004.14 1004.59 1004.97 1005.25 1005.41 1005.46 1005.39 1005.23 1004.98 1004.69 1004.37 1004.05 1003.75 1003.49 1003.26 1003.08 1002.92 1002.78 1002.66 1002.52
1010.00 1009.74 1009.49 1009.23 1008.94 1008.60 1008.21 1007.75 1007.21 1006.60 1005.94 1005.23 1004.51 1003.82 1003.19 1002.66 1002.26 1002.00 1001.91 1001.98 1002.20 1002.55 1003.00 1003.50 1004.01 1004.49 1004.92 1005.24 1005.46 1005.57 1005.56 1005.46 1005.28 1005.04 1004.78 1004.52 1004.27 1004.05 1003.86 1003.70 1003.57 1003.46 1003.34 1003.22
Thickness
5748 5754 5757 5754 5753 5750 5738 5727 5712 5711 5708 5711 5714 5714 5713 5709 5704 5698 5694 5691 5686 5680 5674 5669 5664 5659 5654 5648 5642 5636 5629 5622 5617 5612 5607 5602 5597 5593 5589 5585 5582 5578 5575 5572
5743 5753 5753 5750 5754 5752 5747 5740 5727 5717 5713 5723 5722 5718 5712 5706 5700 5695 5693 5689 5685 5680 5673 5666 5661 5655 5650 5644 5638 5631 5624 5618 5613 5607 5602 5596 5592 5587 5582 5578 5574 5570 5566 5563
5724 5738 5742 5731 5748 5749 5745 5744 5734 5718 5718 5723 5716 5712 5707 5703 5700 5696 5692 5687 5682 5676 5669 5663 5657 5652 5645 5640 5633 5627 5620 5614 5608 5602 5596 5591 5587 5582 5577 5572 5568 5563 5559 5555
5719 5721 5714 5732 5760 5758 5743 5738 5739 5730 5725 5721 5715 5710 5707 5704 5699 5694 5690 5685 5679 5671 5665 5660 5654 5648 5642 5635 5629 5622 5615 5609 5603 5597 5592 5587 5581 5576 5571 5567 5561 5556 5552 5548
5712 5709 5716 5739 5754 5751 5735 5725 5733 5726 5721 5716 5709 5705 5702 5705 5700 5693 5689 5682 5675 5669 5663 5657 5650 5644 5637 5630 5624 5617 5610 5604 5598 5592 5587 5582 5577 5572 5567 5561 5556 5551 5547 5542
5715 5708 5703 5729 5756 5760 5739 5715 5732 5728 5722 5716 5705 5689 5691 5702 5697 5692 5687 5680 5673 5667 5660 5653 5647 5640 5632 5625 5618 5612 5606 5600 5594 5588 5582 5577 5572 5568 5563 5557 5552 5547 5542 5537
5714 5708 5717 5746 5761 5755 5716 5715 5733 5731 5725 5718 5705 5699 5701 5700 5694 5690 5685 5679 5672 5664 5655 5649 5643 5636 5628 5621 5614 5609 5602 5596 5590 5584 5578 5574 5569 5564 5558 5553 5547 5542 5536 5532
5710 5704 5714 5755 5754 5738 5734 5742 5737 5731 5726 5719 5712 5708 5702 5696 5691 5686 5680 5675 5668 5658 5651 5645 5639 5631 5624 5617 5612 5605 5598 5592 5586 5581 5576 5573 5565 5560 5555 5548 5542 5537 5531 5525
5724 5726 5749 5759 5757 5758 5752 5742 5738 5732 5726 5720 5712 5706 5700 5693 5687 5683 5677 5670 5663 5654 5646 5640 5634 5627 5620 5615 5609 5601 5594 5587 5582 5577 5572 5567 5561 5557 5551 5545 5538 5533 5525 5519
5738 5744 5756 5761 5762 5760 5754 5748 5743 5737 5729 5722 5713 5706 5699 5690 5683 5677 5671 5665 5658 5650 5642 5635 5630 5624 5618 5612 5605 5597 5590 5584 5579 5574 5569 5565 5560 5554 5548 5542 5535 5528 5521 5515
5733 5745 5754 5758 5759 5757 5754 5750 5743 5737 5731 5724 5714 5705 5696 5687 5680 5673 5667 5660 5653 5645 5638 5632 5626 5621 5615 5608 5601 5593 5586 5581 5576 5571 5566 5562 5558 5552 5546 5540 5533 5526 5520 5513
5729 5744 5741 5745 5756 5756 5748 5743 5740 5733 5727 5723 5716 5706 5696 5686 5678 5670 5663 5657 5649 5642 5635 5629 5623 5617 5612 5605 5597 5590 5583 5579 5574 5569 5565 5560 5556 5552 5547 5541 5535 5528 5520 5513
5748 5754 5750 5753 5756 5754 5749 5744 5739 5733 5727 5719 5713 5706 5696 5684 5676 5668 5661 5654 5646 5640 5633 5627 5620 5614 5609 5602 5595 5587 5581 5576 5572 5568 5563 5559 5554 5548 5545 5541 5536 5529 5523 5516
5754 5753 5747 5747 5746 5748 5746 5743 5738 5731 5725 5718 5710 5702 5692 5682 5672 5665 5658 5651 5644 5637 5631 5624 5617 5611 5606 5599 5592 5586 5580 5576 5571 5566 5562 5558 5553 5548 5543 5538 5534 5529 5524 5518
5746 5746 5741 5742 5742 5741 5739 5734 5726 5719 5715 5709 5703 5695 5686 5676 5668 5661 5655 5648 5640 5633 5627 5620 5614 5608 5603 5596 5590 5584 5578 5574 5569 5566 5562 5558 5553 5548 5543 5538 5533 5529 5525 5520
5733 5733 5731 5729 5727 5727 5726 5722 5716 5711 5708 5702 5695 5688 5681 5673 5664 5656 5649 5643 5635 5628 5622 5616 5610 5605 5599 5593 5587 5581 5576 5574 5570 5565 5562 5558 5553 5549 5544 5539 5535 5531 5526 5522
5713 5708 5708 5707 5710 5711 5712 5712 5710 5707 5702 5696 5689 5682 5673 5664 5655 5648 5643 5638 5633 5626 5620 5613 5607 5601 5596 5590 5584 5578 5573 5571 5569 5565 5561 5558 5553 5549 5545 5540 5536 5532 5528 5526
5694 5692 5692 5692 5692 5693 5696 5698 5698 5696 5692 5688 5682 5673 5664 5656 5648 5643 5638 5632 5627 5621 5615 5610 5603 5597 5592 5587 5581 5575 5570 5567 5565 5563 5560 5557 5554 5550 5545 5542 5538 5535 5531 5528
5676 5675 5676 5677 5677 5676 5676 5678 5677 5676 5675 5672 5666 5660 5656 5651 5646 5640 5633 5626 5620 5614 5609 5604 5599 5593 5587 5582 5578 5572 5568 5565 5564 5562 5560 5557 5554 5550 5547 5543 5540 5537 5533 5530
5659 5659 5659 5660 5661 5659 5657 5658 5659 5658 5656 5653 5650 5646 5642 5640 5637 5632 5626 5620 5614 5609 5604 5598 5592 5587 5582 5577 5574 5568 5565 5563 5562 5560 5558 5555 5553 5550 5547 5545 5542 5539 5536 5533
5640 5641 5642 5642 5642 5642 5641 5640 5640 5640 5641 5639 5636 5633 5632 5631 5628 5624 5617 5612 5609 5603 5598 5593 5586 5581 5576 5572 5569 5565 5563 5562 5560 5558 5556 5553 5552 5550 5548 5546 5543 5541 5538 5535
5621 5622 5622 5623 5623 5624 5625 5624 5624 5624 5624 5624 5623 5622 5620 5618 5617 5614 5612 5608 5604 5596 5590 5585 5580 5575 5571 5568 5564 5562 5560 5559 5557 5555 5553 5551 5550 5548 5546 5545 5544 5541 5539 5536
5601 5602 5603 5604 5604 5606 5608 5609 5610 5610 5610 5610 5610 5610 5609 5610 5608 5604 5601 5599 5593 5588 5582 5577 5573 5570 5567 5562 5559 5557 5556 5554 5552 5551 5549 5548 5547 5546 5545 5544 5543 5541 5539 5537
5582 5583 5584 5586 5587 5588 5589 5592 5593 5595 5596 5597 5599 5600 5600 5599 5599 5598 5595 5591 5584 5579 5573 5570 5567 5564 5560 5556 5554 5552 5550 5549 5547 5546 5546 5545 5545 5544 5542 5541 5541 5541 5539 5538
5564 5565 5566 5567 5567 5569 5571 5573 5575 5577 5579 5582 5584 5586 5588 5589 5588 5587 5583 5579 5574 5568 5564 5561 5558 5556 5552 5550 5548 5546 5544 5542 5541 5541 5541 5540 5540 5540 5539 5539 5539 5539 5538 5537
5545 5546 5547 5548 5548 5549 5551 5552 5554 5556 5559 5562 5566 5569 5572 5574 5575 5573 5570 5566 5561 5558 5555 5551 5548 5546 5544 5542 5541 5539 5537 5536 5535 5535 5535 5535 5535 5535 5535 5535 5536 5536 5535 5534
5526 5527 5527 5528 5529 5530 5531 5532 5533 5536 5539 5542 5546 5551 5555 5558 5559 5558 5557 5553 5550 5547 5545 5543 5540 5538 5536 5534 5533 5531 5529 5529 5528 5528 5528 5528 5528 5529 5530 5530 5531 5531 5532 5531